Weather History for Hilton Head Island, SC

Change the Weather History Date:

Tuesday, March 19, 2013

  Actual Average Record
Temperature  
Mean Temperature 65 °F -  
Max Temperature 75 °F 70 °F 87 °F (1963)
Min Temperature 55 °F 48 °F 31 °F (1978)
Growing Degree Days 15 (Base 50)    
Moisture  
Dew Point 55 °F    
Average Humidity 89    
Maximum Humidity 100    
Minimum Humidity 22    
Precipitation  
Precipitation 0.01 in - - ()
Sea Level Pressure  
Sea Level Pressure 29.94 in    
Wind  
Wind Speed 6 mph (WSW)    
Max Wind Speed 17 mph    
Max Gust Speed 23 mph    
Visibility 10 miles    
Events Rain    
Averages and records for this station are not official NWS values.
T = Trace of Precipitation, MM = Missing Value Source: NWS Daily Summary

Daily Weather History Graph

Daily Weather History Graph

Search for Another Location

Airport:

Trip Planner

Search our weather history database for the weather conditions in past years. The results will help you decide how hot, cold, wet, or windy it might be!

Date:

Astronomy

Mar. 19, 2013 Rise Set
Actual Time 7:27 AM EDT 7:33 PM EDT
Civil Twilight 7:03 AM EDT 7:58 PM EDT
Nautical Twilight 6:34 AM EDT 8:26 PM EDT
Astronomical Twilight 6:05 AM EDT 8:55 PM EDT
Moon 12:35 PM EDT (3/19) 2:00 AM EDT (3/19)
Length of Visible Light 12h 55m
Length of Day
12h 06m
Waxing Crescent, 49% of the Moon is Illuminated
Mar 19
Waxing Crescent
Mar 19
First Quarter
Mar 27
Full
Apr 3
Last Quarter
Apr 10
New

Hourly Weather History & Observations

Time (EDT) Temp. Dew Point Humidity Pressure Visibility Wind Dir Wind Speed Gust Speed Precip Events Conditions
12:15 AM 57.2 °F 57.2 °F 100% 29.96 in 10.0 mi NNW 5.8 mph - 0.00 in   Partly Cloudy
12:35 AM 57.2 °F 57.2 °F 100% 29.96 in 10.0 mi WNW 3.5 mph - 0.00 in   Clear
12:55 AM 57.2 °F 57.2 °F 100% 29.95 in 9.0 mi Calm Calm - 0.00 in   Partly Cloudy
1:15 AM 57.2 °F 57.2 °F 100% 29.95 in 5.0 mi South 4.6 mph - 0.00 in   Mostly Cloudy
1:35 AM 57.2 °F 57.2 °F 100% 29.94 in 10.0 mi SW 3.5 mph - 0.00 in   Mostly Cloudy
1:55 AM 57.2 °F 57.2 °F 100% 29.95 in 10.0 mi SSW 8.1 mph - 0.00 in   Scattered Clouds
2:15 AM 57.2 °F 57.2 °F 100% 29.93 in 10.0 mi South 3.5 mph - 0.00 in   Clear
2:35 AM 57.2 °F 57.2 °F 100% 29.94 in 8.0 mi SSW 8.1 mph - 0.00 in Rain Light Rain
2:55 AM 57.2 °F 57.2 °F 100% 29.93 in 8.0 mi South 8.1 mph - 0.00 in Rain Light Rain
3:15 AM 57.2 °F 57.2 °F 100% 29.91 in 8.0 mi SSW 10.4 mph 18.4 mph 0.00 in Rain Light Rain
3:55 AM 57.2 °F 57.2 °F 100% 29.86 in 9.0 mi South 8.1 mph 17.3 mph 0.01 in   Clear
4:15 AM 57.2 °F 57.2 °F 100% 29.85 in 10.0 mi South 8.1 mph 17.3 mph 0.00 in   Clear
4:35 AM 57.2 °F 57.2 °F 100% 29.86 in 10.0 mi SSW 8.1 mph - 0.00 in   Clear
4:55 AM 57.2 °F 57.2 °F 100% 29.86 in 10.0 mi SW 3.5 mph - 0.00 in   Clear
5:15 AM 57.2 °F 57.2 °F 100% 29.85 in 5.0 mi SSW 3.5 mph - 0.00 in   Clear
5:35 AM 55.4 °F 55.4 °F 100% 29.87 in 10.0 mi SSW 5.8 mph - 0.00 in   Clear
5:55 AM 57.2 °F 57.2 °F 100% 29.89 in 10.0 mi SW 5.8 mph - 0.00 in   Clear
6:15 AM 57.2 °F 57.2 °F 100% 29.89 in 10.0 mi SW 5.8 mph - 0.00 in   Clear
6:35 AM 57.2 °F 57.2 °F 100% 29.90 in 10.0 mi WSW 3.5 mph - 0.00 in   Partly Cloudy
6:50 AM 57.2 °F 55.4 °F 94% 29.93 in 10.0 mi SSW 9.2 mph - N/A   Mostly Cloudy
8:50 AM 57.2 °F 55.4 °F 94% 29.93 in 10.0 mi WSW 9.2 mph - N/A   Scattered Clouds
9:50 AM 60.8 °F 57.2 °F 88% 29.95 in 10.0 mi WSW 11.5 mph - N/A   Scattered Clouds
10:59 AM 64.4 °F 57.2 °F 77% 29.96 in 10.0 mi WNW 10.4 mph - N/A   Clear
11:55 AM 64.4 °F 55.4 °F 73% 29.98 in 10.0 mi West 17.3 mph 23.0 mph N/A   Partly Cloudy
12:55 PM 68.0 °F 57.2 °F 68% 29.97 in 10.0 mi West 6.9 mph - N/A   Clear
2:50 PM 71.6 °F 53.6 °F 53% 29.94 in 10.0 mi North 10.4 mph - N/A   Clear
3:50 PM 75.2 °F 50.0 °F 41% 29.93 in 10.0 mi NNW 6.9 mph - N/A   Clear
5:50 PM 75.2 °F 37.4 °F 25% 29.94 in 10.0 mi NW 9.2 mph - N/A   Clear
6:50 PM 75.2 °F 33.8 °F 22% 29.95 in 10.0 mi West 5.8 mph - N/A   Clear
7:50 PM 69.8 °F 33.8 °F 27% 29.97 in 10.0 mi WSW 4.6 mph - N/A   Clear
9:15 PM 60.8 °F 60.8 °F 100% 29.99 in 10.0 mi NNW 3.5 mph - 0.00 in   Clear
9:35 PM 59.0 °F 59.0 °F 100% 30.00 in 10.0 mi Calm Calm - 0.00 in   Clear
9:55 PM 57.2 °F 57.2 °F 100% 30.00 in 10.0 mi NW 3.5 mph - 0.00 in   Clear
10:15 PM 59.0 °F 59.0 °F 100% 30.01 in 10.0 mi NNW 3.5 mph - 0.00 in   Clear
10:35 PM 59.0 °F 59.0 °F 100% 30.01 in 10.0 mi Calm Calm - 0.00 in   Clear
10:55 PM 55.4 °F 55.4 °F 100% 30.02 in 10.0 mi Calm Calm - 0.00 in   Clear
11:15 PM 60.8 °F 60.8 °F 100% 30.03 in 10.0 mi NNW 4.6 mph - 0.00 in   Clear
11:35 PM 60.8 °F 60.8 °F 100% 30.02 in 10.0 mi NNW 5.8 mph - 0.00 in   Clear
11:55 PM 59.0 °F 59.0 °F 100% 30.02 in 10.0 mi North 4.6 mph - 0.00 in   Clear